Estación de Linares 2
Ultimos registro cada 15 minutos 36
| N° | Estación | Fecha / Hora | Temperatura | Humedad | Lluvia | Velocidad | Dirección | Radiación | Presion |
| 36 | Linares 2 | 08-05-2026 14:45 | 12,2 | 83 | 0 | 0 | 3 | 179 | 1020,5 |
| 35 | Linares 2 | 08-05-2026 14:30 | 12,3 | 83 | 0 | 0 | 86 | 172 | 1020,7 |
| 34 | Linares 2 | 08-05-2026 14:15 | 12,3 | 84 | 0,2 | 0 | 67 | 248 | 1020,6 |
| 33 | Linares 2 | 08-05-2026 14:00 | 12,3 | 79 | 0 | 1,8 | 34 | 232 | 1020,7 |
| 32 | Linares 2 | 08-05-2026 13:45 | 12,1 | 81 | 0 | 2,7 | 42 | 214 | 1020,8 |
| 31 | Linares 2 | 08-05-2026 13:30 | 11,6 | 84 | 0 | 1,3 | 5 | 323 | 1020,9 |
| 30 | Linares 2 | 08-05-2026 13:15 | 10,7 | 89 | 0 | 1,3 | 64 | 480 | 1021,1 |
| 29 | Linares 2 | 08-05-2026 13:00 | 10,1 | 89 | 0 | 1,8 | 49 | 287 | 1021,3 |
| 28 | Linares 2 | 08-05-2026 08:45 | 7,6 | 92 | 0 | 0 | 16 | 14 | 1022 |
| 27 | Linares 2 | 08-05-2026 08:30 | 7,6 | 92 | 0 | 0 | 296 | 0 | 1022,2 |
| 26 | Linares 2 | 08-05-2026 08:15 | 7,5 | 92 | 0 | 0 | 296 | 0 | 1022,2 |
| 25 | Linares 2 | 08-05-2026 08:00 | 7,4 | 91 | 0 | 0 | 296 | 0 | 1022,1 |
| 24 | Linares 2 | 08-05-2026 07:45 | 7,3 | 91 | 0 | 0 | 323 | 0 | 1022,1 |
| 23 | Linares 2 | 08-05-2026 07:30 | 7,2 | 92 | 0 | 0 | 19 | 0 | 1022,1 |
| 22 | Linares 2 | 08-05-2026 07:15 | 7,2 | 92 | 0 | 0 | 15 | 0 | 1022,1 |
| 21 | Linares 2 | 08-05-2026 07:00 | 7,3 | 92 | 0 | 0 | 15 | 0 | 1022,1 |
| 20 | Linares 2 | 08-05-2026 06:45 | 7,4 | 92 | 0 | 0 | 15 | 0 | 1022,4 |
| 19 | Linares 2 | 08-05-2026 06:30 | 7,4 | 92 | 0 | 0 | 358 | 0 | 1022,6 |
| 18 | Linares 2 | 08-05-2026 06:15 | 7,4 | 92 | 0 | 0 | 358 | 0 | 1022,7 |
| 17 | Linares 2 | 08-05-2026 06:00 | 7,3 | 92 | 0 | 0 | 358 | 0 | 1022,7 |
| 16 | Linares 2 | 08-05-2026 05:45 | 7,2 | 93 | 0 | 0 | 358 | 0 | 1022,6 |
| 15 | Linares 2 | 08-05-2026 05:30 | 7 | 93 | 0 | 0 | 5 | 0 | 1022,6 |
| 14 | Linares 2 | 08-05-2026 05:15 | 6,8 | 93 | 0 | 0 | 25 | 0 | 1022,6 |
| 13 | Linares 2 | 08-05-2026 05:00 | 6,7 | 93 | 0 | 0 | 25 | 0 | 1022,7 |
| 12 | Linares 2 | 08-05-2026 04:45 | 6,4 | 93 | 0 | 0 | 26 | 0 | 1022,7 |
| 11 | Linares 2 | 08-05-2026 04:30 | 6,1 | 93 | 0 | 0 | 54 | 0 | 1022,8 |
| 10 | Linares 2 | 08-05-2026 04:15 | 5,8 | 93 | 0 | 0 | 54 | 0 | 1022,9 |
| 9 | Linares 2 | 08-05-2026 04:00 | 5,7 | 92 | 0 | 0 | 54 | 0 | 1023 |
| 8 | Linares 2 | 08-05-2026 03:45 | 5,5 | 92 | 0 | 0 | 54 | 0 | 1023,6 |
| 7 | Linares 2 | 08-05-2026 03:30 | 5,7 | 92 | 0 | 0 | 121 | 0 | 1024 |
| 6 | Linares 2 | 08-05-2026 03:15 | 5,7 | 91 | 0 | 0 | 121 | 0 | 1024,1 |
| 5 | Linares 2 | 08-05-2026 03:00 | 6,1 | 91 | 0 | 0 | 121 | 0 | 1024,1 |
| 4 | Linares 2 | 08-05-2026 02:45 | 6,4 | 91 | 0 | 0 | 121 | 0 | 1024,4 |
| 3 | Linares 2 | 08-05-2026 02:30 | 6,6 | 92 | 0 | 0 | 121 | 0 | 1024,3 |
| 2 | Linares 2 | 08-05-2026 02:15 | 6,6 | 92 | 0 | 0 | 121 | 0 | 1024,4 |
| 1 | Linares 2 | 08-05-2026 02:00 | 6,4 | 91 | 0 | 0 | 121 | 0 | 1024,6 |